TimeCST,TemperatureF,Dew PointF,Humidity,Sea Level PressureIn,VisibilityMPH,Wind Direction,Wind SpeedMPH,Gust SpeedMPH,PrecipitationIn,Events,Conditions,WindDirDegrees,DateUTC
12:53 AM,6.1,-0.9,73,30.26,10.0,NW,9.2,-,N/A,,Overcast,310,2013-02-15 06:53:00
1:53 AM,7.0,-0.0,73,30.27,10.0,NW,9.2,-,N/A,,Mostly Cloudy,320,2013-02-15 07:53:00
2:53 AM,6.1,-0.9,73,30.28,10.0,NW,6.9,-,N/A,,Clear,320,2013-02-15 08:53:00
3:53 AM,1.9,-2.9,80,30.29,10.0,NW,9.2,-,N/A,,Clear,320,2013-02-15 09:53:00
4:53 AM,-0.0,-4.0,83,30.31,10.0,NW,8.1,-,N/A,,Clear,310,2013-02-15 10:53:00
5:53 AM,1.4,-2.2,85,30.23,10.0,NW,9.2,-,N/A,,Clear,320,2013-02-15 11:53:00
6:53 AM,1.9,-2.0,83,30.34,10.0,NW,5.8,-,N/A,,Clear,320,2013-02-15 12:53:00
7:53 AM,1.0,-2.9,83,30.36,10.0,NW,4.6,-,N/A,,Clear,320,2013-02-15 13:53:00
8:53 AM,1.9,-2.9,80,30.38,10.0,NW,8.1,-,N/A,,Partly Cloudy,320,2013-02-15 14:53:00
9:53 AM,8.1,-0.0,70,30.39,10.0,NNW,6.9,-,N/A,,Clear,340,2013-02-15 15:53:00
10:53 AM,10.0,1.0,67,30.39,10.0,NNW,8.1,-,N/A,,Clear,330,2013-02-15 16:53:00
11:53 AM,10.9,1.9,67,30.39,10.0,NW,10.4,-,N/A,,Clear,310,2013-02-15 17:53:00
12:53 PM,14.0,1.0,56,30.38,10.0,NW,9.2,-,N/A,,Clear,320,2013-02-15 18:53:00
1:53 PM,15.1,1.0,54,30.37,10.0,NW,8.1,-,N/A,,Clear,320,2013-02-15 19:53:00
2:53 PM,16.0,1.0,52,30.36,10.0,NW,11.5,-,N/A,,Clear,310,2013-02-15 20:53:00
3:53 PM,16.0,1.9,54,30.37,10.0,WNW,13.8,-,N/A,,Clear,290,2013-02-15 21:53:00
4:53 PM,15.1,1.9,56,30.36,10.0,WNW,10.4,-,N/A,,Clear,290,2013-02-15 22:53:00
5:53 PM,14.0,1.0,56,30.36,10.0,West,10.4,-,N/A,,Clear,280,2013-02-15 23:53:00
6:53 PM,10.9,1.0,64,30.36,10.0,West,9.2,-,N/A,,Clear,280,2013-02-16 00:53:00
7:53 PM,8.1,-0.9,67,30.36,10.0,West,10.4,-,N/A,,Clear,270,2013-02-16 01:53:00
8:53 PM,6.1,-0.9,73,30.37,10.0,WNW,8.1,-,N/A,,Clear,290,2013-02-16 02:53:00
9:53 PM,3.9,-2.0,76,30.36,10.0,WNW,10.4,-,N/A,,Clear,300,2013-02-16 03:53:00
10:14 PM,3.2,-2.2,78,30.25,10.0,WNW,10.4,-,N/A,,Mostly Cloudy,300,2013-02-16 04:14:00
10:53 PM,1.9,-2.9,80,30.35,10.0,WNW,8.1,-,N/A,,Mostly Cloudy,300,2013-02-16 04:53:00
11:46 PM,1.4,-4.0,78,30.23,10.0,Calm,Calm,-,N/A,,Scattered Clouds,0,2013-02-16 05:46:00
11:53 PM,1.9,-4.0,76,30.33,10.0,WNW,3.5,-,N/A,,Scattered Clouds,300,2013-02-16 05:53:00